Hourly Weather Bolshoe Berdyaevo

Today, 26 July, Monday

Time Temperature Precipitation Wind Pressure Humidity
00:00 +15°C° 0 mm 1 mps 744 mmHg 79%
01:00 +15°C° 0 mm 1 mps 744 mmHg 81%
02:00 +14°C° 0 mm 1 mps 744 mmHg 84%
03:00 +15°C° 0 mm 1 mps 744 mmHg 84%
04:00 +15°C° 0 mm 1 mps 744 mmHg 83%
05:00 +15°C° 0 mm 1 mps 745 mmHg 83%
06:00 +19°C° 0 mm 1 mps 745 mmHg 75%
07:00 +21°C° 0 mm 1 mps 745 mmHg 67%
08:00 +23°C° 0 mm 1 mps 745 mmHg 59%
09:00 +25°C° 0 mm 1 mps 745 mmHg 53%
10:00 +26°C° 0 mm 1 mps 745 mmHg 48%
11:00 +28°C° 0 mm 1 mps 745 mmHg 42%
12:00 +28°C° 0 mm 1 mps 745 mmHg 41%
13:00 +28°C° 0 mm 1 mps 744 mmHg 41%
14:00 +28°C° 0 mm 1 mps 744 mmHg 40%
15:00 +28°C° 0 mm 1 mps 744 mmHg 42%
16:00 +28°C° 0 mm 2 mps 744 mmHg 45%
17:00 +28°C° 0 mm 2 mps 744 mmHg 47%
18:00 +26°C° 0 mm 2 mps 744 mmHg 54%
19:00 +24°C° 0 mm 2 mps 744 mmHg 60%
20:00 +21°C° 0 mm 2 mps 744 mmHg 67%
21:00 +20°C° 0 mm 2 mps 744 mmHg 68%
22:00 +21°C° 0 mm 1 mps 744 mmHg 69%
23:00 +20°C° 0 mm 1 mps 744 mmHg 71%

Tomorrow, 27 July, Tuesday

Time Temperature Precipitation Wind Pressure Humidity
00:00 +20°C° 0 mm 1 mps 744 mmHg 74%
01:00 +19°C° 0 mm 1 mps 744 mmHg 78%
02:00 +18°C° 0 mm 1 mps 744 mmHg 81%
03:00 +18°C° 0 mm 1 mps 744 mmHg 82%
04:00 +18°C° 0 mm 1 mps 744 mmHg 83%
05:00 +18°C° 0 mm 1 mps 745 mmHg 84%
06:00 +20°C° 0 mm 1 mps 745 mmHg 75%
07:00 +23°C° 0 mm 1 mps 745 mmHg 67%
08:00 +25°C° 0 mm 2 mps 745 mmHg 59%
09:00 +26°C° 0 mm 2 mps 744 mmHg 53%
10:00 +28°C° 0 mm 2 mps 744 mmHg 48%
11:00 +29°C° 0 mm 2 mps 744 mmHg 42%
12:00 +29°C° 0 mm 2 mps 744 mmHg 44%
13:00 +28°C° 0 mm 2 mps 743 mmHg 46%
14:00 +28°C° 0 mm 2 mps 743 mmHg 48%
15:00 +28°C° 0 mm 2 mps 743 mmHg 48%
16:00 +28°C° 0 mm 2 mps 743 mmHg 48%
17:00 +28°C° 0 mm 2 mps 742 mmHg 47%
18:00 +26°C° 0 mm 2 mps 742 mmHg 54%
19:00 +24°C° 0 mm 2 mps 742 mmHg 61%
20:00 +21°C° 0 mm 2 mps 742 mmHg 68%
21:00 +21°C° 0 mm 2 mps 742 mmHg 70%
22:00 +20°C° 0 mm 2 mps 742 mmHg 72%
23:00 +19°C° 0 mm 2 mps 742 mmHg 75%

Day after tomorrow, 28 July, Wednesday

Time Temperature Precipitation Wind Pressure Humidity
00:00 +18°C° 0 mm 2 mps 741 mmHg 78%
01:00 +18°C° 0 mm 2 mps 741 mmHg 82%
02:00 +17°C° 0 mm 2 mps 740 mmHg 86%
03:00 +18°C° 0 mm 2 mps 740 mmHg 85%
04:00 +18°C° 0 mm 3 mps 740 mmHg 84%
05:00 +18°C° 0 mm 3 mps 739 mmHg 82%
06:00 +19°C° 0.1 mm 3 mps 739 mmHg 81%
07:00 +19°C° 0.1 mm 3 mps 739 mmHg 80%
08:00 +20°C° 0.1 mm 3 mps 738 mmHg 79%
09:00 +20°C° 0.5 mm 3 mps 738 mmHg 84%
10:00 +20°C° 0.5 mm 3 mps 738 mmHg 88%
11:00 +19°C° 0.5 mm 3 mps 738 mmHg 93%
12:00 +20°C° 0.7 mm 3 mps 737 mmHg 93%
13:00 +20°C° 0.7 mm 4 mps 737 mmHg 93%
14:00 +21°C° 0.7 mm 4 mps 737 mmHg 92%
15:00 +21°C° 0.6 mm 3 mps 737 mmHg 92%
16:00 +22°C° 0.6 mm 3 mps 736 mmHg 92%
17:00 +22°C° 0.6 mm 3 mps 736 mmHg 91%
18:00 +21°C° 0.3 mm 2 mps 736 mmHg 92%
19:00 +21°C° 0.3 mm 1 mps 736 mmHg 92%
20:00 +20°C° 0.3 mm 1 mps 736 mmHg 93%
21:00 +20°C° 0 mm 1 mps 736 mmHg 93%
22:00 +19°C° 0 mm 2 mps 736 mmHg 93%
23:00 +19°C° 0 mm 2 mps 736 mmHg 93%

29 July, Thursday

Time Temperature Precipitation Wind Pressure Humidity
00:00 +18°C° 0 mm 2 mps 736 mmHg 92%
01:00 +18°C° 0 mm 2 mps 736 mmHg 92%
02:00 +17°C° 0 mm 2 mps 736 mmHg 91%
03:00 +17°C° 0 mm 2 mps 736 mmHg 91%
04:00 +17°C° 0 mm 2 mps 736 mmHg 92%
05:00 +16°C° 0 mm 2 mps 736 mmHg 92%
06:00 +19°C° 0 mm 2 mps 736 mmHg 83%
07:00 +21°C° 0 mm 2 mps 736 mmHg 75%
08:00 +24°C° 0 mm 3 mps 736 mmHg 66%
09:00 +26°C° 0 mm 3 mps 736 mmHg 59%
10:00 +27°C° 0 mm 3 mps 736 mmHg 52%
11:00 +29°C° 0 mm 3 mps 736 mmHg 45%
12:00 +29°C° 0 mm 3 mps 736 mmHg 45%
13:00 +29°C° 0 mm 3 mps 735 mmHg 45%
14:00 +30°C° 0 mm 3 mps 735 mmHg 44%
15:00 +28°C° 0.2 mm 3 mps 735 mmHg 55%
16:00 +26°C° 0.2 mm 3 mps 735 mmHg 66%
17:00 +23°C° 0.2 mm 2 mps 734 mmHg 78%
18:00 +21°C° 0.8 mm 2 mps 734 mmHg 83%
19:00 +20°C° 0.8 mm 2 mps 734 mmHg 88%
20:00 +19°C° 0.8 mm 2 mps 735 mmHg 93%
21:00 +19°C° 0.1 mm 2 mps 734 mmHg 94%
22:00 +19°C° 0.1 mm 2 mps 734 mmHg 95%
23:00 +18°C° 0.1 mm 2 mps 734 mmHg 96%

30 July, Friday

Time Temperature Precipitation Wind Pressure Humidity
00:00 +18°C° 0 mm 2 mps 735 mmHg 96%
01:00 +17°C° 0 mm 2 mps 735 mmHg 96%
02:00 +16°C° 0 mm 2 mps 735 mmHg 97%
03:00 +16°C° 0 mm 2 mps 735 mmHg 96%
04:00 +16°C° 0 mm 2 mps 735 mmHg 96%
05:00 +15°C° 0 mm 2 mps 735 mmHg 96%
06:00 +17°C° 0 mm 2 mps 736 mmHg 87%
07:00 +19°C° 0 mm 3 mps 736 mmHg 79%
08:00 +20°C° 0 mm 3 mps 736 mmHg 70%
09:00 +22°C° 0 mm 3 mps 736 mmHg 62%
10:00 +24°C° 0 mm 3 mps 736 mmHg 53%
11:00 +26°C° 0 mm 4 mps 736 mmHg 44%
12:00 +27°C° 0 mm 4 mps 736 mmHg 41%
13:00 +28°C° 0 mm 4 mps 736 mmHg 38%
14:00 +28°C° 0 mm 4 mps 735 mmHg 36%
15:00 +27°C° 0 mm 4 mps 735 mmHg 40%
16:00 +27°C° 0 mm 4 mps 735 mmHg 44%
17:00 +26°C° 0 mm 3 mps 735 mmHg 49%
18:00 +25°C° 0 mm 3 mps 735 mmHg 51%
19:00 +24°C° 0 mm 3 mps 735 mmHg 54%
20:00 +22°C° 0 mm 3 mps 734 mmHg 57%
21:00 +21°C° 0 mm 3 mps 734 mmHg 60%
22:00 +20°C° 0 mm 3 mps 734 mmHg 64%
23:00 +18°C° 0 mm 3 mps 734 mmHg 67%

31 July, Saturday

Time Temperature Precipitation Wind Pressure Humidity
00:00 +18°C° 0 mm 3 mps 734 mmHg 69%
01:00 +18°C° 0 mm 3 mps 734 mmHg 70%
02:00 +18°C° 0 mm 3 mps 734 mmHg 71%
03:00 +18°C° 0 mm 4 mps 733 mmHg 70%
04:00 +19°C° 0 mm 4 mps 733 mmHg 68%
05:00 +19°C° 0 mm 4 mps 733 mmHg 66%
06:00 +19°C° 0.2 mm 4 mps 733 mmHg 71%
07:00 +19°C° 0.2 mm 4 mps 733 mmHg 76%
08:00 +19°C° 0.2 mm 3 mps 733 mmHg 82%
09:00 +19°C° 2.2 mm 3 mps 733 mmHg 87%
10:00 +18°C° 2.2 mm 3 mps 733 mmHg 92%
11:00 +18°C° 2.2 mm 2 mps 733 mmHg 98%
12:00 +19°C° 0.4 mm 3 mps 733 mmHg 96%
13:00 +19°C° 0.4 mm 3 mps 733 mmHg 94%
14:00 +20°C° 0.4 mm 3 mps 733 mmHg 92%
15:00 +21°C° 0.1 mm 3 mps 733 mmHg 83%
16:00 +22°C° 0.1 mm 3 mps 733 mmHg 75%
17:00 +24°C° 0.1 mm 3 mps 733 mmHg 66%
18:00 +22°C° 0 mm 3 mps 733 mmHg 71%
19:00 +20°C° 0 mm 2 mps 733 mmHg 77%
20:00 +18°C° 0 mm 2 mps 733 mmHg 82%
21:00 +18°C° 0 mm 2 mps 733 mmHg 81%
22:00 +17°C° 0 mm 2 mps 733 mmHg 79%
23:00 +16°C° 0 mm 2 mps 733 mmHg 78%
Show more

We Need Your Consent

Meteoprog and our Service Providers may store and access personal data such as cookies, device identifiers or other similar technologies on your device and process such data to personalise content and ads, as well as provide social media features and to analyse the traffic.

  • Store and/or access information on your device

    Cookies, device identifiers or other information can be stored or accessed on your device for the purposes indicated above.

  • Personalised ads and content, ad and content measurement, audience insights, and products development

    Ads and content can be personalised based on a profile. More data can be added to better personalise ads and content. Ad and content performance can be measured. Insights about the audience who saw the ads and content can be derived. Such data can be used to develop or improve user’s experience, systems and software.

By clicking ‘I Agree’ you will allow the use of indicated cookies, device identifiers, web beacons or other similar technologies. Your settings can be changed in the browser on your device.

For certain purposes, legitimate interests may be relied on, rather than consent. You can read more about this in our Privacy and Cookie Policy.